CanjetBLOCKVirtuelBLOCKQcBLOCKBLOCKBLOCKBLOCKBLOCKBLOCKBLOCKBLOCKBLOCKBLOCKBLOCKvolsBLOCKavecBLOCKFS-kACARS2019-09-15BLOCK02colon21am

volsBLOCKBLOCKBLOCKBLOCKBLOCKpilotesBLOCKBLOCKBLOCKBLOCKBLOCKBLOCKBLOCKBLOCKtypeBLOCKBLOCKdepBLOCKBLOCKarrBLOCKBLOCKBLOCKBLOCKBLOCKaltBLOCKBLOCKBLOCKBLOCKBLOCKgsBLOCKBLOCKBLOCKBLOCKstatut

CJA9999StephaneBLOCKGA388CYYZ-OMDB0ft6kts02colon31am










BLOCKAppuyerBLOCKsurBLOCKF5BLOCKpourBLOCKactualiserBLOCKBLOCKBLOCKMiseBLOCKaBLOCKjourcolonBLOCK02colon21colon19amCanjetBLOCKvirtuelBLOCKQC

Boeing faces lawsuit

Publié par Yvan Roy le 2019-09-03


 

                                                       

 


  


Microsoft flight sim 2020

Publié par Yvan Roy le 2019-06-25

 

Microsoft flight simulator 2020 encore plus fort sera disponible pour votre PC au début 2020 .

 

https://fsi.microsoftstudios.com/
 

                                                   

 





Bienvenue chez Canjetvirtuel-Q

Publié par Michel Ayotte le 2013-06-14

 

Canjetvirtuel-Québec est une compagnie aérienne virtuelle qui a été fondée par 2 passionnés de la simulation de vol.

Elle est opérée avec les Boeing 737. Exceptionnelement et pour votre plaisir les Boeing 747,757,767 et 777 sont autorisés pour des vols de plus de 1,5 heure.

Ces appareils pouvant faire des vols cargos ou des vols passagers,que ce soit au Canada, Europe, États-Unis, Mexique et Caraïbes.

Vous trouverez votre place comme pilote chez nous!



Avis

Aux fins de la simulation de vol seulement. CanjetVirtuel Québec n'est en aucun cas affilié avec n'importe quelle compagnie aérienne du monde réel. CanjetVirtuel Québec est un site à but non lucratif gérée par des amateurs de simulation de vol. Toutes les images sont la propriété exclusive de leurs propriétaires respectifs.
| propulsé par phpVMS, © 2013-2019.

Notice

For flight simulation purposes only. CanjetVirtuel Quebec is in no way affiliated with any real world airline. CanjetVirtuel Quebec is a non-profit site run by flight simulation enthusiasts. All images are the sole property of their respective owners.
| powered by phpVMS, © 2013-2019.

Affiliations

Vatsim

Les statistiques du site

Nombre de pilotes: 15
Total des vols effectués: 4735
Trajets disponibles: 543
Passagers transportés: 957394
Total des heures de vol: 14191
Distance totale (NM): 5739532
Pilotes en ligne: 0

METAR

CYHZ 150600Z 23015G20KT 6SM -RA BR OVC029 15/14 A3015 RMK SC8 SLP214

CYQB 150600Z 24006KT 15SM FEW009 BKN060 14/12 A2998 RMK SF1SC7 SF TR SLP156

CYUL 150600Z 24014KT 15SM FEW055 16/09 A3005 RMK SC1 SLP177 DENSITY ALT 200FT

CYYZ 150600Z VRB04KT 15SM FEW050 FEW150 14/10 A3015 RMK SC1AC1 AC TR SLP212